VR2HK-13 Weather Reports


Display with metric or nautical units.
time (UTC)temp
F
wind
direction
speed
MPH
gust
MPH
rain 1hr
in
rain 24hr
in
rain mn
in
humidity
%
barometer
mb
20260509073540 74 250 5.0 11.0 0.00 7.67 0.00 80 1014.3
20260509073422 74 251 5.0 11.0 0.00 7.68 0.00 80 1014.3
20260509073040 74 360 5.0 10.0 0.00 7.74 0.00 80 1014.3
20260509072541 74 329 4.0 13.0 0.00 7.80 0.00 79 1014.3
20260509072040 74 11 3.0 10.0 0.00 7.87 0.00 80 1014.4
20260509071851 74 318 1.0 10.0 0.00 7.90 0.00 80 1014.4
20260509071541 74 336 5.0 11.0 0.00 7.98 0.00 80 1014.4
20260509071342 74 34 5.0 11.0 0.00 8.00 0.00 80 1014.5
20260509071040 74 196 3.0 14.0 0.00 8.05 0.00 80 1014.4
20260509070540 75 324 1.0 8.0 0.00 8.07 0.00 80 1014.4
20260509070040 74 290 5.0 12.0 0.00 8.10 0.00 80 1014.4
20260509065541 75 258 2.0 12.0 0.00 8.17 0.00 80 1014.5
20260509065040 74 222 7.0 11.0 0.00 8.22 0.00 80 1014.4
20260509064539 74 19 5.0 13.0 0.00 8.26 0.00 80 1014.5
20260509064040 74 252 5.0 11.0 0.00 8.27 0.00 81 1014.5
20260509063040 74 253 4.0 15.0 0.00 8.38 0.00 82 1014.7
20260509062539 74 63 5.0 11.0 0.00 8.43 0.00 82 1014.7
20260509062040 73 24 2.0 8.0 0.00 8.50 0.00 82 1014.8
20260509061651 73 246 2.0 7.0 0.00 8.52 0.00 82 1014.8
20260509061539 73 331 3.0 12.0 0.00 8.53 0.00 83 1014.9
20260509061040 73 343 6.0 13.0 0.00 8.58 0.00 83 1015.1
20260509060631 73 352 7.0 20.0 0.00 8.63 0.00 83 1015.1
20260509060539 73 64 8.0 20.0 0.00 8.64 0.00 83 1015.2
20260509060121 73 219 4.0 9.0 0.00 8.72 0.00 83 1015.0
20260509060039 73 210 3.0 9.0 0.00 8.72 0.00 83 1015.1
20260509055611 73 258 3.0 10.0 0.00 8.75 0.00 83 1015.1
20260509055540 73 44 4.0 12.0 0.00 8.77 0.00 83 1015.1
20260509055039 73 285 5.0 9.0 0.00 8.79 0.00 83 1015.1
20260509054551 73 294 5.0 19.0 0.00 8.84 0.00 82 1015.1
20260509054540 73 334 5.0 19.0 0.00 8.84 0.00 82 1015.2
20260509054039 74 60 5.0 15.0 0.00 8.89 0.00 83 1015.2
20260509053540 74 113 0.0 10.0 0.00 8.96 0.00 83 1015.3
20260509053531 74 132 0.0 10.0 0.00 8.96 0.00 83 1015.3
20260509053039 74 269 1.0 12.0 0.00 9.04 0.00 82 1015.4
20260509053021 74 275 1.0 12.0 0.00 9.04 0.00 82 1015.4
20260509052540 73 210 3.0 11.0 0.00 9.11 0.00 83 1015.4
20260509052511 73 274 4.0 11.0 0.00 9.11 0.00 82 1015.5
20260509052039 74 275 3.0 6.0 0.00 9.12 0.00 83 1015.5
20260509052000 74 259 1.0 4.0 0.00 9.12 0.00 83 1015.5
20260509051540 74 304 3.0 9.0 0.00 9.14 0.00 83 1015.5
20260509051451 74 295 6.0 9.0 0.00 9.15 0.00 83 1015.4
20260509051039 74 241 2.0 7.0 0.00 9.16 0.00 84 1015.5
20260509050539 74 231 3.0 7.0 0.00 9.21 0.00 83 1015.5
20260509050431 73 20 2.0 11.0 0.00 9.21 0.00 84 1015.6
20260509050039 73 11 4.0 11.0 0.00 9.23 0.00 83 1015.7
20260509045920 73 318 2.0 12.0 0.00 9.24 0.00 84 1015.7
20260509045539 73 315 4.0 21.0 0.00 9.29 0.00 83 1015.8
20260509045411 73 68 11.0 21.0 0.00 9.30 0.00 83 1015.8
20260509045039 74 276 3.0 7.0 0.00 9.35 0.00 84 1015.8
20260509044901 74 335 3.0 8.0 0.00 9.36 0.00 84 1015.7
20260509044539 74 272 4.0 9.0 0.00 9.41 0.00 84 1015.8
20260509044350 73 298 2.0 9.0 0.00 9.42 0.00 84 1015.9
20260509044039 73 284 3.0 21.0 0.00 9.43 0.00 84 1016.0
20260509043841 73 77 3.0 21.0 0.00 9.47 0.00 84 1016.0
20260509043539 73 236 7.0 15.0 0.00 9.51 0.00 84 1016.0
20260509043330 73 305 1.0 8.0 0.00 9.56 0.00 84 1016.1
20260509043039 73 283 4.0 8.0 0.00 9.59 0.00 84 1016.2
20260509042821 73 82 1.0 7.0 0.00 9.59 0.00 84 1016.3
20260509042539 73 351 2.0 9.0 0.00 9.60 0.00 84 1016.3
20260509042310 73 77 5.0 13.0 0.00 9.62 0.00 84 1016.3
20260509042039 73 348 2.0 14.0 0.00 9.64 0.00 84 1016.3
20260509041801 73 277 3.0 14.0 0.00 9.64 0.00 84 1016.3
20260509041539 73 23 3.0 12.0 0.00 9.68 0.00 84 1016.5
20260509041250 73 360 6.0 22.0 0.00 9.73 0.00 84 1016.4
20260509041039 73 0 8.0 22.0 0.00 9.73 0.00 84 1016.4
20260509040538 73 30 4.0 15.0 0.00 9.79 0.00 84 1016.4
20260509040230 73 241 5.0 17.0 0.00 9.83 0.00 85 1016.3
20260509040039 73 230 3.0 17.0 0.00 9.89 0.00 85 1016.3
20260509035720 73 36 2.0 12.0 0.00 9.95 0.00 85 1016.4
20260509035537 73 222 7.0 12.0 0.00 9.98 0.00 85 1016.4
20260509035210 73 330 3.0 17.0 0.00 0.01 0.00 85 1016.4
20260509035039 73 11 4.0 17.0 0.00 0.07 0.00 85 1016.4
20260509034700 73 15 4.0 10.0 0.00 0.12 0.00 85 1016.5
20260509034539 73 276 7.0 10.0 0.00 0.14 0.00 85 1016.5
20260509034150 73 230 7.0 13.0 0.00 0.22 0.00 85 1016.6
20260509034039 73 309 4.0 13.0 0.00 0.26 0.00 85 1016.6
20260509033640 73 247 4.0 14.0 0.00 0.29 0.00 85 1016.7
20260509033539 73 239 8.0 14.0 0.00 0.29 0.00 85 1016.6
20260509033130 73 240 3.0 10.0 0.00 0.35 0.00 85 1016.7
20260509033039 73 240 5.0 10.0 0.00 0.38 0.00 85 1016.7
20260509032620 73 183 3.0 8.0 0.00 0.45 0.00 85 1016.6
20260509032539 73 280 2.0 8.0 0.00 0.45 0.00 85 1016.6
20260509032109 73 263 3.0 13.0 0.00 0.55 0.00 85 1016.6
20260509032038 73 278 2.0 13.0 0.00 0.58 0.00 85 1016.6
20260509031600 73 48 2.0 17.0 0.00 0.66 0.00 85 1016.6
20260509031539 73 62 2.0 17.0 0.00 0.66 0.00 85 1016.6
20260509031049 73 67 4.0 10.0 0.00 0.78 0.00 85 1016.7
20260509031038 73 66 4.0 10.0 0.00 0.78 0.00 85 1016.7
20260509030541 73 44 5.0 20.0 0.00 0.85 0.00 85 1016.6
20260509030539 73 41 5.0 20.0 0.00 0.85 0.00 85 1016.6
20260509030038 73 358 4.0 12.0 0.00 0.88 0.00 85 1016.5
20260509030029 73 298 5.0 12.0 0.00 0.88 0.00 85 1016.4
20260509025538 73 338 4.0 16.0 0.00 0.99 0.00 85 1016.4
20260509025519 73 286 4.0 16.0 0.00 0.99 0.00 85 1016.4
20260509025038 73 209 2.0 7.0 0.00 1.09 0.00 85 1016.3
20260509025010 73 263 2.0 7.0 0.00 1.09 0.00 85 1016.3
20260509024538 73 224 1.0 12.0 0.00 1.18 0.00 85 1016.4
20260509024459 73 76 1.0 13.0 0.00 1.19 0.00 85 1016.5
20260509024038 73 8 8.0 18.0 0.00 1.26 0.00 85 1016.5
20260509023950 73 30 3.0 18.0 0.00 1.30 0.00 85 1016.5
20260509023538 73 29 6.0 16.0 0.00 1.33 0.00 85 1016.6
20260509023439 73 111 6.0 16.0 0.00 1.35 0.00 85 1016.6
20260509023038 73 280 6.0 10.0 0.00 1.44 0.00 85 1016.5
20260509022930 73 356 5.0 8.0 0.00 1.44 0.00 85 1016.6
20260509022538 73 266 5.0 15.0 0.00 1.50 0.00 85 1016.7
20260509022419 73 273 6.0 15.0 0.00 1.51 0.00 85 1016.7
20260509022038 73 255 3.0 7.0 0.00 1.56 0.00 85 1016.8
20260509021538 73 255 3.0 11.0 0.00 1.66 0.00 85 1016.8
20260509021359 73 211 3.0 10.0 0.00 1.68 0.00 85 1016.8
20260509021038 73 62 3.0 16.0 0.00 1.81 0.00 85 1016.8
20260509020849 73 35 2.0 16.0 0.00 1.85 0.00 85 1016.8
20260509020537 73 349 5.0 11.0 0.00 1.90 0.00 85 1016.7
20260509020339 73 116 5.0 20.0 0.00 1.92 0.00 85 1016.7
20260509020038 73 17 8.0 20.0 0.00 1.95 0.00 85 1016.6
20260509015829 73 81 9.0 18.0 0.00 1.99 0.00 85 1016.7
20260509015537 73 196 2.0 10.0 0.00 2.05 0.00 85 1016.8
20260509015319 73 128 3.0 14.0 0.00 2.09 0.00 85 1016.7
20260509015038 73 99 4.0 14.0 0.00 2.12 0.00 85 1016.8
20260509014809 73 197 7.0 14.0 0.00 2.22 0.00 85 1016.7
20260509014536 73 16 3.0 15.0 0.00 2.28 0.00 85 1016.8
20260509014259 73 240 5.0 15.0 0.00 2.33 0.00 85 1016.8
20260509013749 73 257 5.0 16.0 0.00 2.37 0.00 85 1016.6
20260509013537 73 13 5.0 16.0 0.00 2.44 0.00 85 1016.7
20260509013239 73 323 4.0 11.0 0.00 2.55 0.00 85 1016.7
20260509013038 73 64 4.0 11.0 0.00 2.60 0.00 85 1016.8
20260509012729 73 307 1.0 14.0 0.00 2.66 0.00 85 1016.7
20260509012537 73 286 4.0 15.0 0.00 2.67 0.00 85 1016.7
20260509012219 73 228 8.0 15.0 0.00 2.72 0.00 86 1016.6
20260509012037 73 244 3.0 7.0 0.00 2.74 0.00 86 1016.6
20260509011709 73 294 2.0 12.0 0.00 2.77 0.00 86 1016.6
20260509011537 73 202 7.0 12.0 0.00 2.77 0.00 86 1016.5
20260509011159 73 96 3.0 10.0 0.00 2.82 0.00 86 1016.5
20260509011037 73 51 4.0 13.0 0.00 2.83 0.00 86 1016.6
20260509010649 73 198 8.0 14.0 0.00 2.88 0.00 86 1016.5
20260509010537 73 200 2.0 14.0 0.00 2.90 0.00 86 1016.5
20260509010138 73 235 0.0 5.0 0.00 2.98 0.00 86 1016.5
20260509010037 73 360 2.0 7.0 0.00 2.98 0.00 86 1016.5
20260509005629 73 247 5.0 10.0 0.00 3.05 0.00 86 1016.3
20260509005537 73 221 7.0 10.0 0.00 3.06 0.00 86 1016.3
20260509005119 73 319 2.0 8.0 0.00 3.11 0.00 86 1016.2
20260509005037 73 275 2.0 8.0 0.00 3.11 0.00 86 1016.2
20260509004609 73 19 5.0 20.0 0.00 3.16 0.00 86 1016.1
20260509004537 73 103 8.0 20.0 0.00 3.16 0.00 86 1016.1
20260509004058 73 242 0.0 4.0 0.00 3.21 0.00 87 1016.1
20260509004037 73 213 0.0 7.0 0.00 3.21 0.00 87 1016.1
20260509003549 73 316 5.0 15.0 0.00 3.27 0.00 87 1016.1
20260509003537 73 124 5.0 15.0 0.00 3.27 0.00 87 1016.1
20260509003039 72 310 0.0 18.0 0.00 3.28 0.00 87 1016.1
20260509003037 72 306 0.0 18.0 0.00 3.28 0.00 87 1016.1
20260509002537 72 307 4.0 18.0 0.00 3.31 0.00 87 1016.0
20260509002528 72 231 5.0 18.0 0.00 3.31 0.00 87 1015.9
20260509002037 72 154 3.0 21.0 0.00 3.32 0.00 87 1015.8
20260509002018 72 23 6.0 21.0 0.00 3.32 0.00 87 1015.8
20260509001537 73 3 4.0 17.0 0.00 3.33 0.00 87 1015.8
20260509001508 72 298 2.0 17.0 0.00 3.33 0.00 87 1015.8
20260509001037 73 230 3.0 11.0 0.00 3.33 0.00 87 1015.7
20260509000958 73 280 2.0 11.0 0.00 3.34 0.00 87 1015.8
20260509000537 73 259 3.0 15.0 0.00 3.35 0.00 87 1015.7
20260509000448 73 346 1.0 15.0 0.00 3.35 0.00 87 1015.7
20260509000036 73 63 4.0 16.0 0.00 3.40 0.00 87 1015.8
20260508235938 73 262 6.0 16.0 0.00 3.40 0.00 87 1015.7
20260508235537 73 314 5.0 10.0 0.00 3.41 0.00 87 1015.8
20260508235428 73 146 4.0 10.0 0.00 3.41 0.00 87 1015.8
20260508235037 73 98 2.0 14.0 0.00 3.42 0.00 87 1015.8
20260508234918 73 41 0.0 14.0 0.00 3.45 0.00 87 1015.8
20260508234537 73 76 4.0 13.0 0.00 3.46 0.00 87 1015.8
20260508234408 73 32 5.0 13.0 0.00 3.46 0.00 87 1015.8
20260508234037 73 283 5.0 13.0 0.00 3.48 0.00 87 1015.8
20260508233537 73 71 8.0 25.0 0.00 3.49 0.00 86 1015.8
20260508233348 73 44 4.0 8.0 0.00 3.49 0.00 86 1015.8
20260508233037 73 238 1.0 6.0 0.00 3.51 0.00 86 1015.7
20260508232838 73 35 0.0 9.0 0.00 3.51 0.00 86 1015.7
20260508232536 73 249 5.0 9.0 0.00 3.51 0.00 86 1015.7
20260508232328 73 282 2.0 8.0 0.00 3.51 0.00 86 1015.6
20260508232037 73 225 1.0 8.0 0.00 3.51 0.00 86 1015.6
20260508231818 73 227 3.0 7.0 0.00 3.51 0.00 86 1015.5
20260508231536 73 340 0.0 11.0 0.00 3.51 0.00 86 1015.4
20260508231308 73 181 1.0 11.0 0.00 3.51 0.00 86 1015.4
20260508231037 73 108 4.0 8.0 0.00 3.53 0.00 86 1015.4
20260508230757 73 277 1.0 6.0 0.00 3.54 0.00 86 1015.4
20260508230536 73 31 0.0 7.0 0.00 3.54 0.00 86 1015.3
20260508230248 73 171 1.0 11.0 0.00 3.54 0.00 86 1015.2
20260508230037 73 200 3.0 13.0 0.00 3.54 0.00 86 1015.2
20260508225737 73 324 7.0 13.0 0.00 3.55 0.00 86 1015.1
20260508225536 73 248 3.0 12.0 0.00 3.57 0.00 86 1015.1
20260508225228 73 256 6.0 12.0 0.00 3.59 0.00 86 1015.0
20260508225036 73 244 4.0 8.0 0.00 3.59 0.00 86 1015.0
20260508224717 73 212 3.0 6.0 0.00 3.59 0.00 86 1014.9
20260508224536 73 4 1.0 10.0 0.00 3.59 0.00 86 1015.0
20260508224036 73 147 1.0 18.0 0.00 3.59 0.00 86 1014.9
20260508223657 73 282 4.0 13.0 0.00 3.59 0.00 86 1014.8
20260508223536 73 265 3.0 24.0 0.00 3.59 0.00 86 1014.8
20260508223148 73 341 11.0 24.0 0.00 3.59 0.00 86 1014.8
20260508223036 73 203 5.0 14.0 0.00 3.59 0.00 86 1014.7
20260508222637 73 43 9.0 16.0 0.00 3.59 0.00 86 1014.7
20260508222536 73 233 6.0 16.0 0.00 3.59 0.00 86 1014.6
20260508222128 73 18 7.0 17.0 0.00 3.59 0.00 86 1014.7
20260508222036 73 57 5.0 17.0 0.00 3.59 0.00 86 1014.7
20260508221617 73 174 4.0 17.0 0.00 3.60 0.00 87 1014.6
20260508221536 73 295 5.0 17.0 0.00 3.60 0.00 87 1014.5
20260508221108 73 162 4.0 14.0 0.00 3.60 0.00 87 1014.4
20260508221036 73 254 2.0 14.0 0.00 3.60 0.00 87 1014.4
20260508220557 73 224 10.0 15.0 0.00 3.60 0.00 87 1014.3
20260508220536 73 237 10.0 15.0 0.00 3.60 0.00 87 1014.2
20260508220047 73 348 8.0 19.0 0.00 3.61 0.00 87 1014.2
20260508220036 73 330 7.0 19.0 0.00 3.61 0.00 87 1014.3
20260508215538 73 14 8.0 25.0 0.00 3.61 0.00 87 1014.1
20260508215535 73 10 8.0 25.0 0.00 3.61 0.00 87 1014.1
20260508215036 73 28 3.0 15.0 0.00 3.61 0.00 87 1014.2
20260508215027 73 233 4.0 15.0 0.00 3.61 0.00 87 1014.2
20260508214535 73 344 4.0 26.0 0.00 3.61 0.00 87 1014.0
20260508214517 73 355 6.0 26.0 0.00 3.61 0.00 87 1014.1
20260508214007 73 298 7.0 11.0 0.00 3.61 0.00 87 1014.1
20260508213457 73 228 3.0 7.0 0.00 3.61 0.00 87 1014.1
20260508213036 73 215 1.0 7.0 0.00 3.61 0.00 87 1014.0
20260508212947 73 43 2.0 11.0 0.00 3.61 0.00 87 1014.1
20260508212535 73 359 5.0 19.0 0.00 3.62 0.00 87 1014.1
20260508212437 73 233 7.0 19.0 0.00 3.62 0.00 87 1014.0
20260508212036 73 52 9.0 19.0 0.00 3.64 0.00 87 1014.1
20260508211928 73 242 4.0 11.0 0.00 3.64 0.00 88 1013.9
20260508211535 73 8 5.0 12.0 0.00 3.64 0.00 88 1013.9
20260508211417 73 51 4.0 12.0 0.00 3.64 0.00 88 1013.9
20260508211036 73 43 7.0 12.0 0.00 3.64 0.00 88 1013.8
20260508210906 73 128 1.0 8.0 0.00 3.64 0.00 88 1013.8
20260508210535 73 51 1.0 13.0 0.00 3.65 0.00 88 1013.7
20260508210357 73 49 2.0 13.0 0.00 3.65 0.00 88 1013.7
20260508210035 74 31 5.0 10.0 0.00 3.65 0.00 88 1013.7
20260508205846 74 360 2.0 10.0 0.00 3.65 0.00 88 1013.6
20260508205535 74 259 1.0 12.0 0.00 3.65 0.00 88 1013.6
20260508205337 73 87 4.0 12.0 0.00 3.65 0.00 88 1013.5
20260508205036 73 74 2.0 17.0 0.00 3.66 0.00 88 1013.5
20260508204826 73 109 6.0 19.0 0.00 3.66 0.00 88 1013.5
20260508204535 73 72 7.0 19.0 0.00 3.66 0.00 88 1013.5
20260508204317 73 291 5.0 17.0 0.00 3.67 0.00 88 1013.5
20260508204036 73 36 10.0 17.0 0.00 3.67 0.00 88 1013.5
20260508203535 73 227 4.0 16.0 0.00 3.67 0.00 88 1013.4
20260508203257 73 19 5.0 16.0 0.00 3.67 0.00 88 1013.3
20260508203035 73 56 5.0 16.0 0.00 3.67 0.00 88 1013.4
20260508202746 73 64 7.0 21.0 0.00 3.67 0.00 88 1013.4
20260508202535 73 11 4.0 22.0 0.00 3.67 0.00 88 1013.2
20260508202237 73 65 7.0 22.0 0.00 3.68 0.00 88 1013.2
20260508202035 73 30 3.0 18.0 0.00 3.68 0.00 88 1013.2
20260508201726 73 210 5.0 25.0 0.00 3.70 0.00 88 1013.1
20260508201535 73 127 10.0 25.0 0.00 3.70 0.00 88 1013.1
20260508201217 74 291 3.0 26.0 0.00 3.70 0.00 88 1013.2
20260508201035 74 100 5.0 26.0 0.00 3.70 0.00 88 1013.2
20260508200706 74 85 3.0 14.0 0.00 3.70 0.00 88 1013.3
20260508200535 74 130 2.0 14.0 0.00 3.71 0.00 88 1013.2
20260508200156 74 51 6.0 19.0 0.00 3.72 0.00 88 1013.4
20260508200035 74 60 9.0 19.0 0.00 3.72 0.00 88 1013.4
20260508195646 74 47 3.0 33.0 0.00 3.72 0.00 88 1013.4
20260508195535 74 90 9.0 33.0 0.00 3.72 0.00 88 1013.4
20260508195136 74 83 4.0 15.0 0.00 3.72 0.00 88 1013.4
20260508195035 74 353 6.0 15.0 0.00 3.72 0.00 88 1013.4
20260508194626 74 190 4.0 15.0 0.00 3.73 0.00 88 1013.4
20260508194535 74 324 2.0 15.0 0.00 3.73 0.00 88 1013.4
20260508194116 74 336 2.0 13.0 0.00 3.74 0.00 88 1013.3
20260508194035 74 230 1.0 13.0 0.00 3.75 0.00 88 1013.3
20260508193607 74 49 9.0 16.0 0.00 3.75 0.00 88 1013.3
20260508193534 74 53 8.0 16.0 0.00 3.75 0.00 88 1013.3
20260508193056 74 37 12.0 23.0 0.00 3.75 0.00 88 1013.4
20260508193035 74 56 9.0 23.0 0.00 3.75 0.00 88 1013.3
20260508192546 74 113 7.0 17.0 0.00 3.79 0.00 88 1013.3
20260508192535 74 75 8.0 17.0 0.00 3.79 0.00 88 1013.3
20260508192037 74 111 10.0 17.0 0.00 3.83 0.00 88 1013.2
20260508192035 74 80 10.0 17.0 0.00 3.83 0.00 88 1013.2
20260508191535 74 39 5.0 23.0 0.00 3.85 0.00 88 1013.2
20260508191525 74 67 7.0 23.0 0.00 3.85 0.00 88 1013.2
20260508191034 74 59 7.0 16.0 0.00 3.88 0.00 88 1013.3
20260508191016 74 27 5.0 16.0 0.00 3.88 0.00 88 1013.3
20260508190534 74 20 5.0 16.0 0.00 3.90 0.00 88 1013.2
20260508190505 74 259 7.0 16.0 0.00 3.90 0.00 88 1013.1
20260508190034 75 235 3.0 13.0 0.00 3.99 0.00 88 1013.1
20260508185956 75 15 3.0 13.0 0.00 3.99 0.00 88 1013.1
20260508185534 75 52 4.0 9.0 0.00 3.99 0.00 88 1013.2
20260508185445 75 42 4.0 8.0 0.00 4.00 0.00 88 1013.2
20260508185035 75 9 2.0 21.0 0.00 4.04 0.00 88 1013.2
20260508184936 75 270 4.0 21.0 0.00 4.05 0.00 88 1013.1
20260508184534 75 58 8.0 26.0 0.00 4.06 0.00 88 1013.3
20260508184426 75 21 5.0 26.0 0.00 4.09 0.00 88 1013.2
20260508184035 75 38 6.0 23.0 0.00 4.10 0.00 88 1013.2
20260508183916 75 44 4.0 23.0 0.00 4.10 0.00 88 1013.2
20260508183534 75 67 7.0 21.0 0.00 4.10 0.00 88 1013.2
20260508183406 75 10 6.0 20.0 0.00 4.10 0.00 88 1013.2
20260508183035 75 327 4.0 17.0 0.00 4.13 0.00 88 1013.3
20260508182855 75 353 3.0 17.0 0.00 4.14 0.00 88 1013.3
20260508182534 75 6 2.0 29.0 0.00 4.17 0.00 88 1013.3
20260508182346 75 34 4.0 29.0 0.00 4.17 0.00 88 1013.4
20260508182035 75 346 4.0 18.0 0.00 4.18 0.00 88 1013.4
20260508181534 75 47 8.0 19.0 0.00 4.22 0.00 88 1013.4
20260508181326 75 146 7.0 15.0 0.00 4.22 0.00 88 1013.3
20260508181034 76 128 5.0 10.0 0.00 4.23 0.00 88 1013.3
20260508180815 76 81 0.0 12.0 0.00 4.23 0.00 88 1013.3
20260508180534 76 13 3.0 12.0 0.00 4.25 0.00 88 1013.3
20260508180306 76 257 3.0 25.0 0.00 4.26 0.00 88 1013.2
20260508180034 76 275 7.0 25.0 0.00 4.29 0.00 87 1013.2
20260508175755 76 323 5.0 20.0 0.00 4.31 0.00 87 1013.2
20260508175534 76 269 7.0 20.0 0.00 4.32 0.00 87 1013.1
20260508175246 76 33 4.0 14.0 0.00 4.33 0.00 87 1013.2
20260508175034 76 276 5.0 26.0 0.00 4.35 0.00 87 1013.3
20260508174735 76 10 7.0 26.0 0.00 4.35 0.00 87 1013.2
20260508174534 76 46 11.0 23.0 0.00 4.35 0.00 87 1013.3
20260508174226 76 266 11.0 23.0 0.00 4.38 0.00 87 1013.1
20260508174033 76 56 7.0 15.0 0.00 4.38 0.00 87 1013.3
20260508173715 77 9 5.0 16.0 0.00 4.38 0.00 87 1013.2
20260508173534 77 56 3.0 17.0 0.00 4.39 0.00 87 1013.3
20260508173205 77 70 7.0 17.0 0.00 4.40 0.00 87 1013.3
20260508173034 77 360 3.0 11.0 0.00 4.40 0.00 87 1013.3
20260508172655 77 354 2.0 8.0 0.00 4.42 0.00 87 1013.3
20260508172534 77 276 2.0 8.0 0.00 4.44 0.00 87 1013.3
20260508172145 77 80 2.0 14.0 0.02 4.45 0.00 87 1013.3
20260508172033 77 56 6.0 14.0 0.03 4.45 0.00 87 1013.3
20260508171635 77 191 2.0 15.0 0.14 4.50 0.00 87 1013.2
20260508171534 77 11 9.0 15.0 0.14 4.50 0.00 87 1013.2
20260508171125 77 20 2.0 12.0 0.18 4.51 0.00 87 1013.1
20260508171033 77 27 7.0 12.0 0.18 4.52 0.00 87 1013.2
20260508170615 77 22 3.0 12.0 0.22 4.55 0.00 87 1013.1
20260508170534 77 66 6.0 12.0 0.22 4.55 0.00 87 1013.2
20260508170105 77 45 0.0 16.0 0.24 4.56 0.00 87 1013.2
20260508170033 77 39 2.0 16.0 0.28 4.57 0.00 86 1013.3
20260508165556 78 227 1.0 9.0 0.37 4.59 0.00 87 1013.3
20260508165534 78 284 2.0 9.0 0.37 4.59 0.00 86 1013.3
20260508165045 78 15 4.0 7.0 0.49 4.59 0.00 86 1013.3
20260508165033 78 22 3.0 7.0 0.49 4.59 0.00 86 1013.3
20260508164536 78 277 2.0 10.0 0.57 4.59 0.00 86 1013.4
20260508164534 78 250 2.0 10.0 0.57 4.59 0.00 86 1013.4
20260508164033 78 303 4.0 16.0 0.62 4.61 0.00 86 1013.4
20260508164025 78 294 4.0 16.0 0.62 4.61 0.00 86 1013.4
20260508163534 78 78 7.0 20.0 0.70 4.62 0.00 86 1013.5
20260508163515 78 8 8.0 20.0 0.70 4.62 0.00 86 1013.4
20260508163033 78 86 6.0 13.0 0.80 4.63 0.00 85 1013.5
20260508163005 78 16 5.0 13.0 0.81 4.63 0.00 85 1013.5
20260508162534 79 41 5.0 10.0 0.89 4.66 0.00 85 1013.6
20260508162454 79 34 1.0 6.0 0.90 4.68 0.00 85 1013.6
20260508162033 79 35 1.0 8.0 0.89 4.69 0.00 85 1013.6
20260508161945 79 39 1.0 8.0 0.88 4.68 0.00 85 1013.6
20260508161434 79 64 1.0 14.0 0.83 4.59 0.00 84 1013.6
20260508161033 79 278 3.0 13.0 0.87 4.59 0.00 84 1013.6
20260508160925 79 10 3.0 13.0 0.87 4.59 0.00 84 1013.5
20260508160534 79 59 4.0 14.0 0.89 4.63 0.00 84 1013.6
20260508160414 79 43 3.0 9.0 0.89 4.62 0.00 84 1013.6
20260508160034 79 243 6.0 9.0 0.94 4.58 0.00 84 1013.6
20260508155905 79 232 0.0 2.0 0.90 4.53 0.00 84 1013.7
20260508155534 78 26 0.0 6.0 0.89 4.53 0.00 84 1013.7
20260508155354 78 270 2.0 6.0 0.87 4.53 0.00 84 1013.7
20260508155033 79 157 1.0 6.0 0.83 4.45 0.00 84 1013.7
20260508154844 79 360 2.0 4.0 0.81 4.43 0.00 84 1013.8
20260508154533 79 270 0.0 15.0 0.79 4.39 0.00 84 1013.8
20260508154334 79 306 1.0 15.0 0.82 4.38 0.00 84 1013.8
20260508154033 79 256 3.0 10.0 0.82 4.37 0.00 84 1013.8
20260508153533 79 244 3.0 11.0 0.82 4.32 0.00 84 1013.8
20260508153314 79 268 5.0 8.0 0.92 4.32 0.00 84 1013.8
20260508153033 79 266 1.0 5.0 0.87 4.25 0.00 84 1013.9
20260508152805 79 295 1.0 4.0 0.85 4.20 0.00 84 1013.9
20260508152533 79 222 1.0 13.0 0.86 4.20 0.00 83 1013.9
20260508152254 79 72 5.0 17.0 0.89 4.18 0.00 83 1013.8
20260508152033 79 55 7.0 17.0 0.90 4.19 0.00 83 1013.8
20260508151745 79 232 5.0 7.0 0.94 4.17 0.00 83 1013.8
20260508151532 79 316 1.0 13.0 0.96 4.18 0.00 83 1013.9
20260508151234 79 328 6.0 13.0 0.94 4.13 0.00 83 1013.9
20260508151033 79 229 2.0 12.0 0.93 4.12 0.00 83 1013.8
20260508150724 80 350 4.0 8.0 0.94 4.10 0.00 83 1013.8
20260508150532 80 320 3.0 7.0 0.93 4.09 0.00 83 1013.9
20260508150214 80 308 2.0 6.0 0.98 4.05 0.00 83 1013.9
20260508150033 80 37 1.0 6.0 0.93 4.00 0.00 83 1013.9
20260508145704 80 23 2.0 6.0 0.93 4.04 0.00 83 1013.9
20260508145533 80 280 1.0 7.0 0.94 4.03 0.00 83 1013.9
20260508145153 80 244 4.0 7.0 0.93 4.01 0.00 82 1014.0
20260508145032 80 273 1.0 7.0 0.93 4.00 0.00 82 1014.0
20260508144644 80 180 3.0 5.0 0.94 4.04 0.00 82 1014.0
20260508144533 80 217 1.0 4.0 0.98 4.03 0.00 82 1014.0
20260508144134 80 146 1.0 8.0 0.93 3.96 0.00 82 1014.0
20260508144032 80 231 2.0 8.0 0.94 3.96 0.00 82 1014.0
20260508143624 80 238 1.0 5.0 0.96 3.88 0.00 81 1014.0
20260508143533 80 222 2.0 5.0 0.96 3.88 0.00 81 1014.0
20260508143032 80 258 1.0 5.0 0.95 3.77 0.00 81 1014.0
20260508142603 80 248 1.0 6.0 0.95 3.73 0.00 81 1014.0
20260508142532 80 230 1.0 6.0 0.95 3.73 0.00 81 1014.1
20260508142054 80 249 3.0 10.0 0.96 3.68 0.00 81 1014.0
20260508142032 80 242 2.0 11.0 0.96 3.68 0.00 81 1014.0
20260508141543 80 217 6.0 10.0 0.93 3.62 0.00 80 1014.0
20260508141532 80 223 5.0 10.0 0.93 3.62 0.00 80 1013.9
20260508141035 80 229 2.0 5.0 0.96 3.59 0.00 80 1013.9
20260508141033 80 201 2.0 5.0 0.96 3.59 0.00 80 1013.9
20260508140532 80 225 5.0 7.0 1.00 3.58 0.00 80 1013.9
20260508140032 80 262 2.0 5.0 0.96 3.55 0.00 80 1013.8
20260508140014 80 253 2.0 5.0 0.98 3.57 0.00 80 1013.9
20260508135532 80 245 2.0 6.0 1.02 3.54 0.00 80 1013.7
20260508135504 80 252 2.0 6.0 1.02 3.54 0.00 80 1013.7
20260508135032 80 222 1.0 4.0 1.03 3.53 0.00 80 1013.7
20260508134532 80 62 6.0 12.0 1.03 3.53 0.00 80 1013.6
20260508134444 80 352 4.0 11.0 1.05 3.53 0.00 80 1013.6
20260508134032 80 19 2.0 9.0 1.08 3.53 0.00 80 1013.6
20260508133933 80 274 2.0 7.0 1.08 3.52 0.00 80 1013.6
20260508133423 81 17 1.0 10.0 0.99 3.39 0.00 80 1013.5
20260508133032 80 289 5.0 10.0 1.03 3.41 0.00 80 1013.5
20260508132913 80 36 1.0 8.0 0.99 3.37 0.00 80 1013.4
20260508132531 80 71 3.0 8.0 0.98 3.38 0.00 81 1013.4
20260508132032 80 170 1.0 4.0 0.93 3.32 0.00 81 1013.4
20260508131853 80 189 1.0 3.0 0.96 3.34 0.00 81 1013.4
20260508131531 80 169 2.0 3.0 0.95 3.31 0.00 81 1013.4
20260508131343 80 180 1.0 3.0 0.94 3.29 0.00 81 1013.4
20260508131032 80 211 1.0 3.0 0.96 3.25 0.00 82 1013.5
20260508130833 80 190 2.0 4.0 0.94 3.22 0.00 82 1013.4
20260508130531 80 211 2.0 4.0 0.93 3.16 0.00 82 1013.3
20260508130323 80 213 1.0 4.0 0.94 3.14 0.00 82 1013.4
20260508130032 80 191 1.0 4.0 0.94 3.14 0.00 82 1013.4
20260508125813 80 188 2.0 4.0 0.92 3.11 0.00 82 1013.3
20260508125532 80 241 1.0 5.0 0.88 3.07 0.00 82 1013.3
20260508125305 80 200 1.0 5.0 0.93 3.07 0.00 82 1013.2
20260508125032 80 208 1.0 5.0 0.90 3.05 0.00 82 1013.2
20260508124753 80 208 1.0 4.0 0.92 3.01 0.00 82 1013.0
20260508124532 80 175 2.0 5.0 0.89 2.99 0.00 82 1013.0
20260508124243 80 194 2.0 4.0 0.87 2.94 0.00 82 1013.0
20260508124031 80 202 2.0 4.0 0.87 2.92 0.00 82 1013.0
20260508123733 80 172 1.0 4.0 0.85 2.89 0.00 82 1012.9
20260508123532 80 167 2.0 4.0 0.83 2.88 0.00 82 1012.9
20260508123221 80 170 2.0 4.0 0.80 2.82 0.00 82 1013.0
20260508123031 80 192 2.0 4.0 0.79 2.81 0.00 82 1013.0
20260508122713 80 201 2.0 4.0 0.82 2.82 0.00 81 1012.9
20260508122532 80 223 1.0 3.0 0.81 2.82 0.00 81 1012.8
20260508122202 80 180 1.0 4.0 0.83 2.82 0.00 81 1012.8
20260508122031 80 167 3.0 4.0 0.83 2.82 0.00 81 1012.8
20260508121653 80 138 1.0 4.0 0.85 2.80 0.00 80 1012.7
20260508121532 80 165 2.0 4.0 0.85 2.77 0.00 80 1012.7
20260508121142 80 191 2.0 5.0 0.82 2.76 0.00 80 1012.6
20260508121031 81 178 3.0 5.0 0.80 2.73 0.00 80 1012.5
20260508120633 81 190 2.0 4.0 0.76 2.74 0.00 80 1012.5
20260508120531 81 276 0.0 1.0 0.75 2.73 0.00 79 1012.4
20260508120122 80 15 1.0 1.0 0.72 2.66 0.00 80 1012.4
20260508120031 80 19 1.0 1.0 0.70 2.64 0.00 80 1012.4
20260508115613 80 263 0.0 2.0 0.70 2.61 0.00 80 1012.5
20260508115531 80 252 0.0 2.0 0.68 2.59 0.00 80 1012.4
20260508115102 80 260 1.0 2.0 0.67 2.57 0.00 80 1012.3
20260508115031 80 285 1.0 2.0 0.69 2.59 0.00 80 1012.3
20260508114552 80 259 1.0 2.0 0.66 2.54 0.00 80 1012.3
20260508114531 80 241 1.0 2.0 0.64 2.53 0.00 80 1012.3
20260508114041 80 237 1.0 4.0 0.63 2.49 0.00 80 1012.3
20260508114031 80 187 1.0 4.0 0.62 2.48 0.00 80 1012.3
20260508113533 80 129 2.0 5.0 0.59 2.48 0.00 80 1012.4
20260508113531 80 110 2.0 5.0 0.59 2.48 0.00 80 1012.4
20260508113031 80 222 3.0 6.0 0.56 2.43 0.00 80 1012.3
20260508113022 80 222 2.0 6.0 0.56 2.43 0.00 80 1012.3
20260508112531 80 233 4.0 6.0 0.57 2.46 0.00 80 1012.3
20260508112512 80 219 4.0 5.0 0.57 2.46 0.00 80 1012.2
20260508112031 80 219 0.0 4.0 0.53 2.38 0.00 80 1012.1
20260508112002 80 285 0.0 4.0 0.53 2.38 0.00 80 1012.1
20260508111531 80 205 2.0 7.0 0.49 2.34 0.00 81 1012.0
20260508111452 80 218 4.0 7.0 0.49 2.34 0.00 80 1012.0
20260508111031 80 204 2.0 5.0 0.51 2.31 0.00 80 1012.1
20260508110942 80 170 2.0 5.0 0.51 2.31 0.00 80 1012.1
20260508110530 80 208 2.0 5.0 0.50 2.33 0.00 79 1012.1
20260508110431 81 157 3.0 5.0 0.50 2.31 0.00 79 1012.1
20260508110031 81 235 3.0 7.0 0.50 2.31 0.00 79 1011.9
20260508105922 81 258 2.0 7.0 0.51 2.30 0.00 79 1011.9
20260508105531 81 227 3.0 5.0 0.49 2.28 0.00 78 1011.8
20260508105412 81 174 1.0 4.0 0.48 2.27 0.00 78 1011.8
20260508105031 81 243 1.0 2.0 0.49 2.25 0.00 78 1011.8
20260508104902 81 10 0.0 2.0 0.50 2.24 0.00 78 1011.8
20260508104531 81 351 1.0 2.0 0.53 2.23 0.00 78 1011.8
20260508104351 81 1 1.0 3.0 0.54 2.23 0.00 78 1011.8
20260508104030 81 277 1.0 4.0 0.56 2.22 0.00 78 1011.7
20260508103842 81 283 2.0 4.0 0.56 2.22 0.00 78 1011.7
20260508103531 81 290 1.0 2.0 0.61 2.21 0.00 78 1011.7
20260508103030 81 315 1.0 3.0 0.69 2.20 0.00 78 1011.7
20260508102822 81 328 1.0 6.0 0.68 2.16 0.00 78 1011.7
20260508102531 81 307 2.0 6.0 0.72 2.16 0.00 78 1011.6
20260508102030 81 242 1.0 4.0 0.75 2.14 0.00 78 1011.6
20260508101802 81 230 2.0 4.0 0.81 2.12 0.00 78 1011.6
20260508101530 81 208 2.0 4.0 0.81 2.10 0.00 78 1011.6
20260508101252 81 298 1.0 8.0 0.79 2.07 0.00 78 1011.5
20260508101030 81 220 3.0 8.0 0.83 2.04 0.00 78 1011.5
20260508100742 82 245 4.0 7.0 0.87 2.04 0.00 77 1011.4
20260508100530 82 259 5.0 7.0 0.92 2.03 0.00 77 1011.3
20260508100232 82 270 3.0 8.0 0.98 2.02 0.00 78 1011.2
20260508100030 82 252 3.0 9.0 1.01 1.99 0.00 77 1011.1
20260508095721 82 281 4.0 9.0 0.99 1.95 0.00 77 1011.1
20260508095530 82 240 6.0 8.0 0.99 1.95 0.00 77 1011.0
20260508095212 82 287 3.0 7.0 1.01 1.90 0.00 77 1011.0
20260508095030 82 265 1.0 7.0 1.00 1.89 0.00 77 1011.0
20260508094701 82 226 2.0 7.0 1.00 1.85 0.00 77 1011.0
20260508094530 82 228 3.0 7.0 0.99 1.83 0.00 77 1011.0
20260508094152 82 239 3.0 9.0 1.01 1.79 0.00 76 1011.0
20260508094030 82 111 2.0 9.0 1.01 1.76 0.00 76 1011.0
20260508093641 83 247 3.0 7.0 0.99 1.69 0.00 76 1011.0
20260508093530 83 264 1.0 7.0 1.00 1.69 0.00 76 1011.1
20260508093131 83 256 3.0 6.0 1.01 1.61 0.00 76 1011.1
20260508092621 83 243 2.0 5.0 1.02 1.52 0.00 75 1011.0
20260508092530 83 305 2.0 6.0 1.02 1.50 0.00 75 1011.1
20260508092111 83 283 4.0 8.0 1.01 1.43 0.00 75 1011.0
20260508092030 83 245 4.0 8.0 1.03 1.43 0.00 75 1011.0
20260508091601 84 220 2.0 6.0 1.05 1.36 0.00 75 1011.0
20260508091530 84 316 3.0 6.0 1.03 1.33 0.00 75 1011.0
20260508091051 84 43 1.0 8.0 1.00 1.32 0.00 75 1010.9
20260508091030 84 3 1.0 8.0 0.96 1.30 0.00 75 1010.9
20260508090541 84 37 5.0 9.0 1.03 1.23 0.00 75 1010.8
20260508090530 84 4 5.0 9.0 1.03 1.23 0.00 75 1010.7
20260508090033 83 198 1.0 5.0 1.01 1.11 0.00 75 1010.8
20260508090030 83 203 1.0 5.0 1.01 1.11 0.00 75 1010.8
20260508085530 83 201 2.0 6.0 1.07 1.09 0.00 76 1010.7
20260508085521 83 161 2.0 6.0 1.07 1.09 0.00 76 1010.7
20260508085030 83 188 3.0 7.0 1.08 1.03 0.00 75 1010.8
20260508085010 83 206 3.0 7.0 1.08 1.03 0.00 75 1010.8
20260508084530 83 186 2.0 6.0 1.05 0.96 0.00 75 1010.8
20260508084501 83 229 3.0 6.0 1.05 0.96 0.00 75 1010.8
20260508084030 83 306 2.0 5.0 1.03 0.88 0.00 75 1010.8
20260508083950 83 147 3.0 6.0 1.03 0.86 0.00 75 1010.8
20260508083529 84 224 4.0 6.0 1.07 0.84 0.00 75 1010.8
20260508083441 84 196 3.0 6.0 1.09 0.84 0.00 75 1010.8
20260508083029 83 360 1.0 5.0 1.01 0.73 0.00 75 1010.7
20260508082930 83 228 1.0 5.0 0.99 0.70 0.00 75 1010.7
20260508082529 83 229 3.0 5.0 0.98 0.65 0.00 76 1010.7
20260508082421 83 208 2.0 6.0 0.96 0.66 0.00 75 1010.7
20260508082029 83 270 3.0 7.0 0.96 0.60 0.00 75 1010.8
20260508081910 83 216 2.0 7.0 0.98 0.62 0.00 76 1010.8
20260508081530 83 237 2.0 6.0 0.95 0.53 0.00 76 1010.8
20260508081401 83 201 3.0 6.0 0.96 0.53 0.00 76 1010.8
20260508081029 83 190 3.0 6.0 1.01 0.55 0.00 76 1010.8
20260508080851 83 225 4.0 6.0 0.94 0.49 0.00 76 1010.8
20260508080529 83 173 3.0 7.0 0.86 0.44 0.00 76 1010.8
20260508080341 83 184 3.0 7.0 0.81 0.39 0.00 76 1010.8
20260508080029 83 163 3.0 6.0 0.80 0.37 0.00 76 1010.9
20260508075831 83 203 3.0 6.0 0.80 0.34 0.00 76 1010.9
20260508075529 83 179 3.0 6.0 0.79 0.32 0.00 76 1010.9
20260508075320 83 186 3.0 6.0 0.76 0.31 0.00 76 1010.9
20260508075029 83 146 4.0 8.0 0.75 0.27 0.00 76 1011.0
20260508074811 83 159 4.0 8.0 0.74 0.26 0.00 75 1010.9
20260508074530 83 185 4.0 8.0 0.74 0.27 0.00 75 1010.9
20260508074300 83 240 5.0 8.0 0.72 0.27 0.00 75 1011.0
20260508074029 83 225 4.0 9.0 0.68 0.22 0.00 75 1010.9
20260508073751 83 174 6.0 9.0 0.63 0.18 0.00 75 1011.0